[[{"header":{"parameterUnit":"m.s-1","parameterCategory":1,"la1":30.2991,"la2":30.254,"lo1":-89.0895,"lo2":-89.0444,"dy":0.0017,"dx":0.0017,"nx":28,"ny":28,"refTime":"2024-12-14T03:00:00:Z","depth":0,"parameterNumber":2,"parameterNumberName":"U-component_of_WINDS"},"data":[0,0,0,0,0,0,0,0,0,0,0,0,0,0,0,0,0,0,0,0,0,0,0,0,0,0,0,0,0,0,0,0,0,0,0,0,0,0,0,0,0,0,0,0,0,0,0,0,0,0,0,0,0,0,0,0,0,0,-5.3859,-5.3861,0,-5.4008,-5.401,-5.4012,-5.3935,-5.3931,-5.3927,-5.3923,-5.4075,-5.4083,-5.4091,0,0,0,0,0,0,0,0,0,0,0,0,0,-5.3508,-5.3515,-5.3859,-5.3861,-5.3863,-5.4008,-5.401,-5.4012,-5.3935,-5.3931,-5.3926,-5.3921,-5.4073,-5.4082,-5.4091,0,0,0,0,0,0,0,0,0,0,0,0,0,-5.3659,-5.3517,-5.3858,-5.3842,-5.3842,-5.4008,-5.401,-5.4013,-5.3936,-5.393,-5.3924,-5.3919,-5.407,-5.4081,-5.4093,-5.4283,0,0,-5.4128,-5.4133,0,0,0,0,0,0,0,0,-5.3651,-5.3672,-5.3842,-5.3843,-5.3844,-5.3947,-5.3942,-5.4103,-5.3938,-5.3901,-5.3923,-5.3916,-5.4037,-5.4051,-5.4092,-5.429,-5.4297,-5.4129,-5.4136,-5.4141,-5.4144,0,0,0,0,0,0,0,-5.364,-5.3665,-5.3918,-5.3845,-5.3846,-5.3827,-5.3842,-5.3972,-5.4,-5.3903,-5.3898,-5.3917,-5.4036,-5.4081,-5.4095,-5.4299,-5.4129,-5.4139,-5.4146,-5.4151,-5.4664,-5.467,0,0,0,0,0,0,-5.3631,-5.3657,-5.3913,-5.3922,-5.3731,-5.3838,-5.3855,-5.392,-5.3999,-5.4005,-5.3922,-5.3913,-5.4064,-5.4082,-5.41,-5.4331,-5.4141,-5.4152,-5.4159,-5.4657,-5.4665,-5.4673,0,0,0,0,0,0,-5.3623,-5.3654,-5.3907,-5.3788,-5.3819,-5.3851,-5.3924,-5.3926,-5.397,-5.4013,-5.4017,-5.3962,-5.406,-5.4084,-5.4239,-5.4335,-5.4157,-5.4168,-5.465,-5.466,-5.4669,-5.4793,0,0,0,0,0,0,-5.3614,-5.3652,-5.3724,-5.3791,-5.3826,-5.4043,-5.393,-5.3933,-5.3991,-5.398,-5.4052,-5.4058,-5.4057,-5.4222,-5.4251,-5.4348,-5.4177,-5.4641,-5.4654,-5.4666,-5.478,-5.4806,-5.4828,0,0,0,0,0,-5.3601,-5.3752,-5.3728,-5.376,-5.3917,-5.4049,-5.4069,-5.4065,-5.3999,-5.4072,-5.41,-5.4056,-5.432,-5.4239,-5.427,-5.4372,-5.4635,-5.465,-5.4665,-5.477,-5.4801,-5.4827,0,0,0,0,0,0,-5.3695,-5.3761,-5.3735,-5.3912,-5.3976,-5.4036,-5.4128,-5.4098,-5.4182,-5.4169,-5.416,-5.4177,-5.4339,-5.437,-5.4279,-5.4563,-5.4467,-5.4489,-5.4536,-5.4566,-5.4589,-5.4579,-5.4186,0,0,0,0,0,-5.3737,-5.3839,-5.389,-5.4041,-5.4075,-5.4096,-5.4154,-5.4146,-5.4211,-5.4238,-5.4276,-5.4342,-5.444,-5.4504,-5.4596,-5.4784,-5.48,-5.487,-5.4894,-5.4913,-5.4933,-5.5037,-5.507,-5.4722,-5.4722,-5.4722,0,0,-5.3823,-5.3872,-5.3936,-5.4061,-5.411,-5.4217,-5.4119,-5.4235,-5.4315,-5.4255,-5.4405,-5.4436,-5.4508,-5.4681,-5.4759,-5.4713,-5.5032,-5.4932,-5.4947,-5.4956,-5.5056,-5.5089,-5.5118,-5.4732,-5.473,-5.4729,0,0,-5.4036,-5.4082,-5.4214,-5.4265,-5.4341,-5.4355,-5.4387,-5.4452,-5.4471,-5.4621,-5.458,-5.4674,-5.4841,-5.4896,-5.4946,-5.5182,-5.5146,-5.5212,-5.5336,-5.5438,-5.5466,-5.549,-5.5577,-5.5608,-5.5231,-5.5231,-5.5232,0,-5.4134,-5.4292,-5.4286,-5.4406,-5.4464,-5.4416,-5.4551,-5.4601,-5.4702,-5.4743,-5.4689,-5.4902,-5.4947,-5.5133,-5.5192,-5.5232,-5.527,-5.5204,-5.5462,-5.5487,-5.5509,-5.5592,-5.5624,-5.5239,-5.5238,-5.5237,-5.5237,0,-5.441,-5.4521,-5.4619,-5.472,-5.4788,-5.4915,-5.4929,-5.4999,-5.4986,-5.5005,-5.516,-5.5213,-5.5317,-5.536,-5.5347,-5.5546,-5.5515,-5.5462,-5.5367,-5.555,-5.5628,-5.5659,-5.525,-5.5247,-5.5245,-5.5243,0,0,-5.4685,-5.4783,-5.4819,-5.4866,-5.4947,-5.5033,-5.5158,-5.526,-5.5322,-5.5394,-5.55,-5.5645,-5.5597,-5.5654,-5.5647,-5.5736,-5.5924,-5.5673,-5.5674,-5.5719,-5.6149,-5.619,-5.6226,-5.5899,-5.5905,-5.591,-5.6144,0,-5.4905,-5.5125,-5.5125,-5.5329,-5.5433,-5.539,-5.55,-5.5562,-5.5585,-5.5676,-5.57,-5.5804,-5.5732,-5.5767,-5.5853,-5.5882,-5.601,-5.5865,-5.6,-5.6005,-5.5985,-5.6266,-5.6309,-5.6527,-5.6173,-5.6179,-5.6182,0,-5.519,-5.5274,-5.5489,-5.5558,-5.5601,-5.57,-5.5795,-5.5883,-5.5953,-5.5963,-5.6028,-5.6008,-5.6137,-5.6037,-5.6216,-5.6118,-5.6173,-5.6196,-5.6204,-5.6218,-5.6106,-5.6289,-5.6596,-5.6629,-5.623,-5.6226,-5.6222,0,-5.5372,-5.5538,-5.5689,-5.573,-5.5813,-5.5884,-5.5922,-5.5986,-5.6049,-5.6132,-5.6173,-5.6269,-5.6323,-5.6399,-5.6406,-5.6332,-5.6587,-5.6487,-5.66,-5.6601,-5.6657,-5.6654,-5.6978,-5.669,-5.6689,-5.6688,-5.6688,0,-5.5618,-5.5752,-5.5772,-5.5865,-5.6015,-5.6013,-5.6161,-5.6193,-5.6251,-5.635,-5.6318,-5.6412,-5.6415,-5.6512,-5.6518,-5.6667,-5.669,-5.6703,-5.6704,-5.6707,-5.6706,-5.6744,-5.673,-5.6697,-5.6695,-5.6694,-5.6692,0,-5.5846,-5.5865,-5.6027,-5.6094,-5.6114,-5.6222,-5.6279,-5.6368,-5.6388,-5.6514,-5.6544,-5.6576,-5.6688,-5.6702,-5.6832,-5.6837,-5.7017,-5.7,-5.6994,-5.6992,-5.7105,-5.7095,-5.7467,-5.7517,-5.7194,-5.7197,-5.72,0,-5.6002,-5.6105,-5.6184,-5.6249,-5.6291,-5.6395,-5.646,-5.6463,-5.6531,-5.6621,-5.67,-5.6809,-5.6896,-5.7078,-5.7112,-5.7213,-5.7199,-5.7323,-5.7214,-5.7216,-5.7204,-5.7198,-5.721,-5.7344,-5.7348,-5.7351,-5.7353,0,-5.6279,-5.6284,-5.6378,-5.6478,-5.6556,-5.6634,-5.6707,-5.6762,-5.6774,-5.6853,-5.6968,-5.7036,-5.7171,-5.728,-5.738,-5.7419,-5.739,-5.7387,-5.7419,-5.7424,-5.7417,-5.7425,-5.7053,-5.7379,-5.7376,-5.7374,-5.7373,-5.7372,-5.6477,-5.6568,-5.6639,-5.6746,-5.6802,-5.6872,-5.696,-5.6992,-5.7089,-5.7199,-5.7195,-5.7322,-5.7392,-5.7523,-5.757,-5.767,-5.7629,-5.7675,-5.7687,-5.7698,-5.7711,-5.7401,-5.7688,-5.7687,-5.7686,-5.7686,-5.7685,0,-5.6754,-5.6798,-5.6897,-5.7002,-5.7087,-5.7052,-5.7132,-5.7206,-5.7319,-5.7387,-5.7475,-5.7608,-5.7715,-5.7759,-5.7864,-5.7936,-5.7925,-5.7964,-5.7959,-5.7969,-5.774,-5.7703,-5.7971,-5.7971,-5.7971,-5.7971,-5.7971,-5.797,-5.6908,-5.706,-5.7074,-5.7255,-5.7297,-5.7423,-5.7472,-5.7537,-5.7592,-5.7743,-5.7833,-5.7861,-5.7921,-5.803,-5.8127,-5.8137,-5.8178,-5.8223,-5.8228,-5.8014,-5.7985,-5.7957,-5.7922,-5.8232,-5.8232,-5.8449,-5.8451,-5.8452]},{"header":{"parameterUnit":"m.s-1","parameterCategory":1,"la1":30.2991,"la2":30.254,"lo1":-89.0895,"lo2":-89.0444,"dy":0.0017,"dx":0.0017,"nx":28,"ny":28,"refTime":"2024-12-14T03:00:00:Z","depth":0,"parameterNumber":3,"parameterNumberName":"V-component_of_WINDS"},"data":[0,0,0,0,0,0,0,0,0,0,0,0,0,0,0,0,0,0,0,0,0,0,0,0,0,0,0,0,0,0,0,0,0,0,0,0,0,0,0,0,0,0,0,0,0,0,0,0,0,0,0,0,0,0,0,0,0,0,-0.6299,-0.6298,0,-0.6238,-0.6237,-0.6237,-0.6184,-0.6184,-0.6183,-0.6182,-0.6121,-0.612,-0.6119,0,0,0,0,0,0,0,0,0,0,0,0,0,-0.6369,-0.6368,-0.6299,-0.6298,-0.6297,-0.6238,-0.6237,-0.6237,-0.6184,-0.6184,-0.6183,-0.6182,-0.6121,-0.612,-0.6119,0,0,0,0,0,0,0,0,0,0,0,0,0,-0.6326,-0.6367,-0.6299,-0.6264,-0.626,-0.6238,-0.6237,-0.6236,-0.6184,-0.6184,-0.6183,-0.6182,-0.6122,-0.612,-0.6118,-0.6126,0,0,-0.6114,-0.6113,0,0,0,0,0,0,0,0,-0.6329,-0.6324,-0.627,-0.6267,-0.6262,-0.6218,-0.6239,-0.62,-0.6185,-0.6213,-0.6182,-0.6181,-0.6154,-0.615,-0.614,-0.6123,-0.6121,-0.6113,-0.6112,-0.6112,-0.6111,0,0,0,0,0,0,0,-0.6332,-0.6326,-0.6275,-0.6269,-0.6265,-0.6251,-0.6244,-0.6232,-0.6189,-0.6211,-0.6207,-0.62,-0.6152,-0.6142,-0.6138,-0.612,-0.6113,-0.6112,-0.6111,-0.611,-0.6104,-0.6104,0,0,0,0,0,0,-0.634,-0.6329,-0.6277,-0.6273,-0.6294,-0.6251,-0.6243,-0.6233,-0.6189,-0.6182,-0.6201,-0.6198,-0.6145,-0.614,-0.6136,-0.614,-0.6112,-0.611,-0.6109,-0.6103,-0.6104,-0.6105,0,0,0,0,0,0,-0.6342,-0.6336,-0.6279,-0.63,-0.6292,-0.625,-0.624,-0.6232,-0.6222,-0.6182,-0.6174,-0.6199,-0.6144,-0.6138,-0.6128,-0.6137,-0.6109,-0.6108,-0.6102,-0.6103,-0.6104,-0.615,0,0,0,0,0,0,-0.6344,-0.6337,-0.634,-0.63,-0.6291,-0.6273,-0.624,-0.6232,-0.622,-0.6215,-0.6178,-0.6171,-0.6143,-0.6131,-0.6127,-0.6135,-0.6107,-0.6101,-0.6103,-0.6104,-0.6148,-0.6153,-0.6157,0,0,0,0,0,-0.6347,-0.6356,-0.634,-0.6334,-0.6294,-0.6274,-0.6268,-0.6236,-0.6221,-0.6223,-0.6196,-0.6172,-0.6137,-0.6131,-0.6125,-0.6133,-0.61,-0.6102,-0.6104,-0.6146,-0.6152,-0.6157,0,0,0,0,0,0,-0.6398,-0.635,-0.6332,-0.6329,-0.6306,-0.6265,-0.6267,-0.6244,-0.6225,-0.6221,-0.6182,-0.6174,-0.6168,-0.615,-0.6143,-0.6137,-0.6115,-0.6116,-0.6149,-0.6155,-0.6159,-0.6163,-0.6105,0,0,0,0,0,-0.6409,-0.6397,-0.6356,-0.6357,-0.6346,-0.6309,-0.6299,-0.6276,-0.625,-0.624,-0.6213,-0.619,-0.6173,-0.6163,-0.6146,-0.6145,-0.6135,-0.6147,-0.6152,-0.6156,-0.6157,-0.6153,-0.6158,-0.6111,-0.6111,-0.6111,0,0,-0.6432,-0.6404,-0.6399,-0.6367,-0.6346,-0.6334,-0.6301,-0.629,-0.628,-0.6239,-0.6227,-0.6207,-0.6177,-0.6171,-0.6168,-0.6156,-0.6168,-0.6159,-0.6162,-0.6161,-0.6155,-0.616,-0.6164,-0.6112,-0.6112,-0.6111,0,0,-0.6466,-0.6445,-0.6442,-0.6422,-0.6391,-0.6365,-0.6365,-0.6327,-0.6311,-0.6299,-0.6267,-0.6255,-0.6228,-0.6207,-0.6193,-0.6218,-0.6194,-0.6214,-0.6238,-0.6235,-0.6238,-0.6242,-0.6249,-0.6252,-0.6215,-0.6215,-0.6215,0,-0.6498,-0.6479,-0.6444,-0.6434,-0.642,-0.6381,-0.6377,-0.636,-0.6325,-0.6315,-0.6303,-0.6266,-0.6244,-0.6231,-0.6237,-0.6228,-0.6225,-0.6217,-0.6241,-0.6244,-0.6246,-0.6252,-0.6255,-0.6217,-0.6217,-0.6217,-0.6217,0,-0.6519,-0.6506,-0.6508,-0.6473,-0.646,-0.6454,-0.6417,-0.6407,-0.6384,-0.636,-0.6347,-0.6319,-0.6294,-0.6289,-0.6268,-0.6274,-0.6267,-0.6248,-0.6226,-0.6253,-0.6258,-0.6261,-0.6221,-0.622,-0.6219,-0.6219,0,0,-0.6585,-0.653,-0.6531,-0.6514,-0.6476,-0.6465,-0.6456,-0.6431,-0.6423,-0.64,-0.639,-0.6367,-0.6349,-0.6333,-0.6309,-0.6306,-0.6325,-0.6287,-0.6286,-0.6294,-0.6327,-0.634,-0.6344,-0.6309,-0.631,-0.631,-0.6329,0,-0.6612,-0.6594,-0.6561,-0.6553,-0.6539,-0.6501,-0.6493,-0.6468,-0.6445,-0.643,-0.6404,-0.6388,-0.6366,-0.6356,-0.6351,-0.6324,-0.6331,-0.6322,-0.6299,-0.6299,-0.6306,-0.6347,-0.6361,-0.6381,-0.6331,-0.6331,-0.6331,0,-0.6641,-0.6619,-0.661,-0.657,-0.6563,-0.6557,-0.653,-0.6516,-0.6487,-0.647,-0.6452,-0.6425,-0.6412,-0.6392,-0.6374,-0.6368,-0.6357,-0.6342,-0.6342,-0.6338,-0.6316,-0.6342,-0.6386,-0.6389,-0.6335,-0.6334,-0.6334,0,-0.6688,-0.6656,-0.6645,-0.6632,-0.6587,-0.6583,-0.6564,-0.6533,-0.652,-0.6496,-0.6487,-0.6463,-0.6449,-0.6431,-0.6398,-0.6387,-0.6382,-0.636,-0.6367,-0.6368,-0.6367,-0.6367,-0.6408,-0.6362,-0.6362,-0.6362,-0.6362,0,-0.6721,-0.6716,-0.6665,-0.6659,-0.6652,-0.6614,-0.6608,-0.6585,-0.6558,-0.6546,-0.6512,-0.6501,-0.6458,-0.6442,-0.6416,-0.6403,-0.6398,-0.6383,-0.6376,-0.6386,-0.6387,-0.6377,-0.6374,-0.6363,-0.6363,-0.6362,-0.6362,0,-0.6772,-0.6738,-0.6723,-0.6681,-0.667,-0.6667,-0.663,-0.6621,-0.6596,-0.658,-0.6575,-0.6534,-0.6513,-0.6478,-0.6448,-0.643,-0.6421,-0.6411,-0.6431,-0.6427,-0.6435,-0.6434,-0.6469,-0.6471,-0.6426,-0.6426,-0.6427,0,-0.6794,-0.6789,-0.6746,-0.6735,-0.6717,-0.67,-0.6685,-0.6648,-0.6634,-0.6599,-0.6594,-0.6571,-0.6549,-0.6517,-0.6485,-0.6461,-0.6448,-0.6462,-0.6444,-0.6453,-0.6446,-0.6446,-0.6444,-0.6466,-0.6467,-0.6467,-0.6468,0,-0.6838,-0.682,-0.6801,-0.6775,-0.6758,-0.6736,-0.6712,-0.6705,-0.6662,-0.6648,-0.6626,-0.6609,-0.6577,-0.6553,-0.6524,-0.6503,-0.6478,-0.6473,-0.6473,-0.6482,-0.6494,-0.6486,-0.6441,-0.6473,-0.6472,-0.6472,-0.6472,-0.6471,-0.6874,-0.6867,-0.6834,-0.6813,-0.6791,-0.6769,-0.6758,-0.6731,-0.6711,-0.6682,-0.666,-0.6639,-0.6608,-0.6566,-0.6547,-0.6529,-0.6517,-0.6518,-0.6518,-0.6518,-0.6521,-0.6498,-0.6523,-0.6523,-0.6523,-0.6523,-0.6523,0,-0.6913,-0.689,-0.6871,-0.6838,-0.6821,-0.6799,-0.677,-0.6757,-0.6739,-0.6712,-0.6691,-0.6664,-0.6641,-0.6606,-0.6579,-0.6572,-0.6559,-0.6566,-0.6565,-0.656,-0.6533,-0.6535,-0.6576,-0.6576,-0.6576,-0.6576,-0.6576,-0.6576,-0.6932,-0.6918,-0.6897,-0.6872,-0.6849,-0.6827,-0.6813,-0.6792,-0.6769,-0.6741,-0.6721,-0.6698,-0.6667,-0.6638,-0.6615,-0.6605,-0.6596,-0.6606,-0.6593,-0.6568,-0.6563,-0.6558,-0.6559,-0.6605,-0.6605,-0.6621,-0.6621,-0.6621]}]]